User: anonymous   Login
Location: Unspecified
(0.0000°N, 0.0000°E)
Time: 05:18:15
(UTC+00:00)
Language:

Triad OI-1X - Orbit

View from above orbital plane
View from above orbital plane
View from above satellite
View from above satellite

Ground track
Ground track

The orbit data is extracted from the following two-line orbital elements,

1  6173U 72069A   18267.49452998 +.00000099 +00000-0 +22545-4 0  9995
2  6173 089.8933 223.7925 0051204 311.9234 185.9770 14.48909788421769
Epoch (UTC): 24 September 2018 11:52:07
Eccentricity: 0.0051204
inclination: 89.8933°
perigee height: 693 km
apogee height: 765 km
right ascension of ascending node: 223.7925°
argument of perigee: 311.9234°
revolutions per day: 14.48909788
mean anomaly at epoch: 185.9770°
orbit number at epoch: 42176

The dashed part of the orbit path shows where the satellite is in the earth's shadow,  

DLR